Time,TemperatureF,DewpointF,PressureIn,WindDirection,WindDirectionDegrees,WindSpeedMPH,WindSpeedGustMPH,Humidity,HourlyPrecipIn,Conditions,Clouds,dailyrainin,SoftwareType,DateUTC
2013-12-17 00:07:00,25.3,24.8,29.93,WNW,292,3.7,-999.0,98,-99.99,,,0.00,Acu-Link.com,2013-12-17 05:07:00,
2013-12-17 00:22:00,25.9,25.4,29.95,WNW,292,4.2,-999.0,98,-99.99,,,0.00,Acu-Link.com,2013-12-17 05:22:00,
2013-12-17 00:37:00,26.1,25.6,29.95,WNW,292,3.2,-999.0,98,-99.99,,,0.00,Acu-Link.com,2013-12-17 05:37:00,
2013-12-17 00:52:00,26.2,25.7,29.95,WNW,292,3.7,-999.0,98,-99.99,,,0.00,Acu-Link.com,2013-12-17 05:52:00,
2013-12-17 01:07:00,26.6,26.1,29.95,NW,315,4.7,-999.0,98,-99.99,,,0.00,Acu-Link.com,2013-12-17 06:07:00,
2013-12-17 01:22:00,27.0,26.8,29.95,WNW,292,3.7,-999.0,99,-99.99,,,0.00,Acu-Link.com,2013-12-17 06:22:00,
2013-12-17 01:37:00,27.1,26.9,29.97,NNW,337,3.7,-999.0,99,-99.99,,,0.00,Acu-Link.com,2013-12-17 06:37:00,
2013-12-17 01:52:00,27.0,26.3,29.97,NNW,337,9.9,-999.0,97,-99.99,,,0.00,Acu-Link.com,2013-12-17 06:52:00,
2013-12-17 02:07:00,26.6,25.6,29.97,NNW,337,5.8,-999.0,96,-99.99,,,0.00,Acu-Link.com,2013-12-17 07:07:00,
2013-12-17 02:22:00,26.4,25.4,29.97,NNW,337,5.8,-999.0,96,-99.99,,,0.00,Acu-Link.com,2013-12-17 07:22:00,
2013-12-17 02:37:00,26.2,25.0,29.98,NNW,337,5.8,-999.0,95,-99.99,,,0.00,Acu-Link.com,2013-12-17 07:37:00,
2013-12-17 02:53:00,26.2,25.0,29.97,North,0,4.2,-999.0,95,-99.99,,,0.00,Acu-Link.com,2013-12-17 07:53:00,
2013-12-17 03:08:00,26.1,24.9,29.98,WNW,292,4.2,-999.0,95,-99.99,,,0.00,Acu-Link.com,2013-12-17 08:08:00,
2013-12-17 03:23:00,26.1,24.9,29.98,West,270,1.7,-999.0,95,-99.99,,,0.00,Acu-Link.com,2013-12-17 08:23:00,
2013-12-17 03:38:00,26.1,24.9,29.99,NW,315,3.2,-999.0,95,-99.99,,,0.00,Acu-Link.com,2013-12-17 08:38:00,
2013-12-17 03:54:00,25.9,24.7,29.98,North,0,3.7,-999.0,95,-99.99,,,0.00,Acu-Link.com,2013-12-17 08:54:00,
2013-12-17 04:09:00,25.7,24.5,29.98,NNW,337,3.7,-999.0,95,-99.99,,,0.00,Acu-Link.com,2013-12-17 09:09:00,
2013-12-17 04:24:00,25.5,24.0,29.99,WNW,292,3.7,-999.0,94,-99.99,,,0.00,Acu-Link.com,2013-12-17 09:24:00,
2013-12-17 04:39:00,25.3,23.8,29.99,NW,315,2.7,-999.0,94,-99.99,,,0.00,Acu-Link.com,2013-12-17 09:39:00,
2013-12-17 04:54:00,25.2,23.7,29.99,NNW,337,3.7,-999.0,94,-99.99,,,0.00,Acu-Link.com,2013-12-17 09:54:00,
2013-12-17 05:09:00,25.0,23.5,29.99,WNW,292,3.7,-999.0,94,-99.99,,,0.00,Acu-Link.com,2013-12-17 10:09:00,
2013-12-17 05:25:00,25.0,23.5,30.00,WSW,247,2.7,-999.0,94,-99.99,,,0.00,Acu-Link.com,2013-12-17 10:25:00,
2013-12-17 05:40:00,24.8,23.1,30.01,NW,315,4.7,-999.0,93,-99.99,,,0.00,Acu-Link.com,2013-12-17 10:40:00,
2013-12-17 05:55:00,24.6,22.9,30.00,WNW,292,5.8,-999.0,93,-99.99,,,0.00,Acu-Link.com,2013-12-17 10:55:00,
2013-12-17 06:10:00,24.4,22.7,30.00,WNW,292,4.7,-999.0,93,-99.99,,,0.00,Acu-Link.com,2013-12-17 11:10:00,
2013-12-17 06:26:00,24.3,22.6,30.00,NW,315,5.8,-999.0,93,-99.99,,,0.00,Acu-Link.com,2013-12-17 11:26:00,
2013-12-17 06:41:00,24.3,22.8,30.00,NW,315,3.7,-999.0,94,-99.99,,,0.00,Acu-Link.com,2013-12-17 11:41:00,
2013-12-17 06:56:00,23.9,21.9,29.98,WNW,292,3.7,-999.0,92,-99.99,,,0.00,Acu-Link.com,2013-12-17 11:56:00,
2013-12-17 07:11:00,23.7,21.7,29.99,WNW,292,3.2,-999.0,92,-99.99,,,0.00,Acu-Link.com,2013-12-17 12:11:00,
2013-12-17 07:26:00,23.7,21.7,30.00,WNW,292,3.2,-999.0,92,-99.99,,,0.00,Acu-Link.com,2013-12-17 12:26:00,
2013-12-17 07:41:00,23.7,22.0,30.00,WNW,292,2.7,-999.0,93,-99.99,,,0.00,Acu-Link.com,2013-12-17 12:41:00,
2013-12-17 07:56:00,23.7,22.0,30.00,SW,225,4.2,-999.0,93,-99.99,,,0.00,Acu-Link.com,2013-12-17 12:56:00,
2013-12-17 08:12:00,23.5,21.5,30.00,NW,315,3.2,-999.0,92,-99.99,,,0.00,Acu-Link.com,2013-12-17 13:12:00,
2013-12-17 08:27:00,23.7,21.7,30.01,WSW,247,3.7,-999.0,92,-99.99,,,0.00,Acu-Link.com,2013-12-17 13:27:00,
2013-12-17 08:42:00,24.1,22.1,30.03,WNW,292,3.7,-999.0,92,-99.99,,,0.00,Acu-Link.com,2013-12-17 13:42:00,
2013-12-17 08:57:00,24.3,22.3,30.03,NNW,337,6.3,-999.0,92,-99.99,,,0.00,Acu-Link.com,2013-12-17 13:57:00,
2013-12-17 09:12:00,24.1,22.1,30.04,NW,315,6.8,-999.0,92,-99.99,,,0.00,Acu-Link.com,2013-12-17 14:12:00,
2013-12-17 09:28:00,24.3,22.6,30.03,WNW,292,4.7,-999.0,93,-99.99,,,0.00,Acu-Link.com,2013-12-17 14:28:00,
2013-12-17 09:43:00,23.9,21.9,30.03,WNW,292,6.3,-999.0,92,-99.99,,,0.00,Acu-Link.com,2013-12-17 14:43:00,
2013-12-17 09:58:00,24.1,22.1,30.03,WNW,292,4.2,-999.0,92,-99.99,,,0.00,Acu-Link.com,2013-12-17 14:58:00,
2013-12-17 10:13:00,24.3,22.1,30.03,WSW,247,4.7,-999.0,91,-99.99,,,0.00,Acu-Link.com,2013-12-17 15:13:00,
2013-12-17 10:28:00,24.3,21.0,30.02,West,270,2.7,-999.0,87,-99.99,,,0.00,Acu-Link.com,2013-12-17 15:28:00,
2013-12-17 10:44:00,25.2,21.9,30.02,SW,225,4.2,-999.0,87,-99.99,,,0.00,Acu-Link.com,2013-12-17 15:44:00,
2013-12-17 10:59:00,25.3,21.7,30.02,WSW,247,3.2,-999.0,86,-99.99,,,0.00,Acu-Link.com,2013-12-17 15:59:00,
2013-12-17 11:14:00,25.2,21.6,30.02,SW,225,5.3,-999.0,86,-99.99,,,0.00,Acu-Link.com,2013-12-17 16:14:00,
2013-12-17 11:29:00,25.2,21.3,30.01,West,270,3.2,-999.0,85,-99.99,,,0.00,Acu-Link.com,2013-12-17 16:29:00,
2013-12-17 11:44:00,25.5,21.6,30.01,WSW,247,4.2,-999.0,85,-99.99,,,0.00,Acu-Link.com,2013-12-17 16:44:00,
2013-12-17 11:59:00,26.2,21.8,29.99,WSW,247,4.2,-999.0,83,-99.99,,,0.00,Acu-Link.com,2013-12-17 16:59:00,
2013-12-17 12:14:00,27.7,22.6,29.98,West,270,4.2,-999.0,81,-99.99,,,0.00,Acu-Link.com,2013-12-17 17:14:00,
2013-12-17 12:29:00,26.4,22.0,29.96,SW,225,7.3,-999.0,83,-99.99,,,0.00,Acu-Link.com,2013-12-17 17:29:00,
2013-12-17 12:45:00,27.7,22.6,29.96,SW,225,5.3,-999.0,81,-99.99,,,0.00,Acu-Link.com,2013-12-17 17:45:00,
2013-12-17 13:00:00,27.5,22.7,29.97,West,270,4.7,-999.0,82,-99.99,,,0.00,Acu-Link.com,2013-12-17 18:00:00,
2013-12-17 13:15:00,26.6,22.1,29.97,SW,225,5.8,-999.0,83,-99.99,,,0.00,Acu-Link.com,2013-12-17 18:15:00,
2013-12-17 13:30:00,29.1,23.4,29.95,West,270,3.7,-999.0,79,-99.99,,,0.00,Acu-Link.com,2013-12-17 18:30:00,
2013-12-17 13:45:00,27.7,22.4,29.96,West,270,6.3,-999.0,80,-99.99,,,0.00,Acu-Link.com,2013-12-17 18:45:00,
2013-12-17 14:00:00,27.7,22.6,29.95,West,270,4.7,-999.0,81,-99.99,,,0.00,Acu-Link.com,2013-12-17 19:00:00,
2013-12-17 14:16:00,28.9,23.2,29.95,SW,225,6.3,-999.0,79,-99.99,,,0.00,Acu-Link.com,2013-12-17 19:16:00,
2013-12-17 14:31:00,28.6,22.9,29.95,WSW,247,5.8,-999.0,79,-99.99,,,0.00,Acu-Link.com,2013-12-17 19:31:00,
2013-12-17 14:46:00,28.6,22.9,29.95,West,270,3.2,-999.0,79,-99.99,,,0.00,Acu-Link.com,2013-12-17 19:46:00,
2013-12-17 15:01:00,29.3,23.0,29.96,West,270,6.3,-999.0,77,-99.99,,,0.00,Acu-Link.com,2013-12-17 20:01:00,
2013-12-17 15:17:00,28.2,22.8,29.97,West,270,7.3,-999.0,80,-99.99,,,0.00,Acu-Link.com,2013-12-17 20:17:00,
2013-12-17 15:32:00,28.6,22.9,29.97,West,270,6.3,-999.0,79,-99.99,,,0.00,Acu-Link.com,2013-12-17 20:32:00,
2013-12-17 15:47:00,28.2,23.1,29.97,West,270,8.3,-999.0,81,-99.99,,,0.00,Acu-Link.com,2013-12-17 20:47:00,
2013-12-17 16:02:00,28.0,23.5,29.97,SW,225,6.8,-999.0,83,-99.99,,,0.00,Acu-Link.com,2013-12-17 21:02:00,
2013-12-17 16:17:00,29.7,24.0,29.98,NW,315,3.7,-999.0,79,-99.99,,,0.00,Acu-Link.com,2013-12-17 21:17:00,
2013-12-17 16:32:00,28.4,23.3,29.98,WSW,247,6.3,-999.0,81,-99.99,,,0.00,Acu-Link.com,2013-12-17 21:32:00,
2013-12-17 16:47:00,27.7,22.9,30.00,SW,225,8.9,-999.0,82,-99.99,,,0.00,Acu-Link.com,2013-12-17 21:47:00,
2013-12-17 17:02:00,27.3,22.8,30.00,West,270,5.8,-999.0,83,-99.99,,,0.00,Acu-Link.com,2013-12-17 22:02:00,
2013-12-17 17:17:00,27.1,22.9,30.00,West,270,8.3,-999.0,84,-99.99,,,0.00,Acu-Link.com,2013-12-17 22:17:00,
2013-12-17 17:33:00,27.1,23.2,30.00,West,270,5.8,-999.0,85,-99.99,,,0.00,Acu-Link.com,2013-12-17 22:33:00,
2013-12-17 17:48:00,27.0,23.1,30.00,WSW,247,6.3,-999.0,85,-99.99,,,0.00,Acu-Link.com,2013-12-17 22:48:00,
2013-12-17 18:03:00,27.5,23.9,30.01,WSW,247,6.3,-999.0,86,-99.99,,,0.00,Acu-Link.com,2013-12-17 23:03:00,
2013-12-17 18:18:00,27.9,24.3,30.01,West,270,4.7,-999.0,86,-99.99,,,0.00,Acu-Link.com,2013-12-17 23:18:00,
2013-12-17 18:33:00,28.0,24.4,30.02,West,270,8.9,-999.0,86,-99.99,,,0.00,Acu-Link.com,2013-12-17 23:33:00,
2013-12-17 18:48:00,28.4,24.8,30.02,West,270,5.3,-999.0,86,-99.99,,,0.00,Acu-Link.com,2013-12-17 23:48:00,
2013-12-17 19:03:00,28.0,24.4,30.03,SW,225,5.3,-999.0,86,-99.99,,,0.00,Acu-Link.com,2013-12-18 00:03:00,
2013-12-17 19:18:00,27.7,24.1,30.04,WSW,247,4.2,-999.0,86,-99.99,,,0.00,Acu-Link.com,2013-12-18 00:18:00,
2013-12-17 19:33:00,27.1,23.8,30.05,WNW,292,4.2,-999.0,87,-99.99,,,0.00,Acu-Link.com,2013-12-18 00:33:00,
2013-12-17 19:49:00,26.6,23.3,30.05,WSW,247,4.7,-999.0,87,-99.99,,,0.00,Acu-Link.com,2013-12-18 00:49:00,
2013-12-17 20:04:00,26.1,23.0,30.06,SW,225,5.3,-999.0,88,-99.99,,,0.00,Acu-Link.com,2013-12-18 01:04:00,
2013-12-17 20:19:00,26.1,23.0,30.06,WSW,247,4.2,-999.0,88,-99.99,,,0.00,Acu-Link.com,2013-12-18 01:19:00,
2013-12-17 20:34:00,26.1,23.3,30.07,SW,225,4.7,-999.0,89,-99.99,,,0.00,Acu-Link.com,2013-12-18 01:34:00,
2013-12-17 20:49:00,26.4,23.6,30.07,SW,225,5.3,-999.0,89,-99.99,,,0.00,Acu-Link.com,2013-12-18 01:49:00,
2013-12-17 21:05:00,26.6,23.8,30.08,SW,225,4.7,-999.0,89,-99.99,,,0.00,Acu-Link.com,2013-12-18 02:05:00,
2013-12-17 21:20:00,27.1,24.3,30.07,West,270,5.3,-999.0,89,-99.99,,,0.00,Acu-Link.com,2013-12-18 02:20:00,
2013-12-17 21:35:00,27.5,24.7,30.08,WSW,247,5.3,-999.0,89,-99.99,,,0.00,Acu-Link.com,2013-12-18 02:35:00,
2013-12-17 21:50:00,27.5,24.7,30.08,SW,225,5.3,-999.0,89,-99.99,,,0.00,Acu-Link.com,2013-12-18 02:50:00,
2013-12-17 22:05:00,27.7,24.9,30.08,West,270,5.8,-999.0,89,-99.99,,,0.00,Acu-Link.com,2013-12-18 03:05:00,
2013-12-17 22:20:00,27.5,24.4,30.08,WNW,292,4.7,-999.0,88,-99.99,,,0.00,Acu-Link.com,2013-12-18 03:20:00,
2013-12-17 22:35:00,27.1,24.0,30.09,WSW,247,6.8,-999.0,88,-99.99,,,0.00,Acu-Link.com,2013-12-18 03:35:00,
2013-12-17 22:50:00,26.8,23.7,30.09,West,270,3.7,-999.0,88,-99.99,,,0.00,Acu-Link.com,2013-12-18 03:50:00,
2013-12-17 23:05:00,26.1,23.3,30.08,SW,225,3.7,-999.0,89,-99.99,,,0.00,Acu-Link.com,2013-12-18 04:05:00,
2013-12-17 23:20:00,25.7,22.9,30.08,West,270,3.7,-999.0,89,-99.99,,,0.00,Acu-Link.com,2013-12-18 04:20:00,
2013-12-17 23:36:00,25.5,23.0,30.09,SW,225,3.7,-999.0,90,-99.99,,,0.00,Acu-Link.com,2013-12-18 04:36:00,
2013-12-17 23:51:00,25.0,22.5,30.09,West,270,3.2,-999.0,90,-99.99,,,0.00,Acu-Link.com,2013-12-18 04:51:00,